This is the latest recevied weather packets stored in our database for station/object 9W8AKN-L. If no packets are shown the sender has not sent any weather packets the latest 10 day(s).
| Time | Temp. | Humidity | Pressure | Rain* | Wind** | Luminosity | Snow |
|---|---|---|---|---|---|---|---|
| 1777663050 | 27.78° C | 92% | 1008.9 hPa | - | - | - | - |
| 1777662150 | 27.78° C | 92% | 1008.9 hPa | - | - | - | - |
| 1777661250 | 27.78° C | 91% | 1009.1 hPa | - | - | - | - |
| 1777660350 | 27.78° C | 91% | 1009 hPa | - | - | - | - |
| 1777659450 | 27.78° C | 91% | 1008.9 hPa | - | - | - | - |
| 1777658550 | 27.78° C | 90% | 1009.2 hPa | - | - | - | - |
| 1777657649 | 27.78° C | 90% | 1009.6 hPa | - | - | - | - |
| 1777656749 | 27.78° C | 89% | 1009.9 hPa | - | - | - | - |
| 1777655849 | 27.78° C | 89% | 1009.9 hPa | - | - | - | - |
| 1777654949 | 27.78° C | 89% | 1010.1 hPa | - | - | - | - |
| 1777654049 | 27.78° C | 88% | 1010.4 hPa | - | - | - | - |
| 1777653149 | 27.78° C | 87% | 1010.5 hPa | - | - | - | - |
| 1777652249 | 27.78° C | 87% | 1010.7 hPa | - | - | - | - |
| 1777651349 | 27.78° C | 84% | 1010.9 hPa | - | - | - | - |
| 1777650449 | 27.78° C | 82% | 1010.9 hPa | - | - | - | - |
| 1777649549 | 27.78° C | 79% | 1010.8 hPa | - | - | - | - |
| 1777648648 | 27.78° C | 75% | 1010.9 hPa | - | - | - | - |
| 1777647748 | 27.78° C | 71% | 1010.9 hPa | - | - | - | - |
| 1777646847 | 27.78° C | 70% | 1010.8 hPa | - | - | - | - |
| 1777645048 | 27.78° C | 75% | 1010.6 hPa | - | - | - | - |
| 1777644148 | 28.33° C | 81% | 1010.6 hPa | - | - | - | - |
| 1777643248 | 28.33° C | 76% | 1010.3 hPa | - | - | - | - |
| 1777642348 | 28.33° C | 77% | 1010.2 hPa | - | - | - | - |
| 1777641448 | 28.33° C | 82% | 1010.1 hPa | - | - | - | - |
| 1777640548 | 28.33° C | 87% | 1009.9 hPa | - | - | - | - |
* Rain since midnight (hover to see other rain measurements)
** Current wind speed in m/s (hover to see current wind gust speed)